Hourly Weather Roundup
Issued by NWS

Home | Current Version | Previous Version | Text Only | Print | Product List | Glossary On
Versions: 1 2 3 4 5 6 7 8 9 10 11 12 13 14 15 16 17 18 19 20 21 22 23 24 25 26 27 28 29 30 31 32 33 34 35 36 37 38 39 40 41 42 43 44 45 46 47 48 49 50
068
NZUS43 KILX 291810
HWRCRS

CRS HOURLY WEATHER ROUNDUP
NATIONAL WEATHER SERVICE, LINCOLN IL
100 PM CDT MON AUG 29 2016


CITY           SKY/WX    TMP DP  RH WIND       PRES   REMARKS
CHAMPAIGN      MOSUNNY   85  72  65 S3        30.24F HX  91
LAWRENCEVILLE  SUNNY     88  70  55 VRB5      30.21F HX  93
PEORIA         PTSUNNY   86  75  69 CALM      30.22F HX  95
SPRINGFIELD    SUNNY     91  75  59 VRB6      30.21F HX 101
$$


CITY           SKY/WX    TMP DP  RH WIND       PRES   REMARKS
BLOOMINGTON    PTSUNNY   84  73  70 SE10      30.24F HX  91
DECATUR        SUNNY     86  72  62 MISG      30.23F HX  92
EFFINGHAM      SUNNY     87  75  68 E3        30.23F HX  96
FLORA          SUNNY     87  74  64 CALM      30.21F HX  95
GALESBURG      MOSUNNY   87  75  66 S6        30.22F HX  96
JACKSONVILLE   PTSUNNY   88  74  63 E7        30.20F HX  97
LACON          PTSUNNY   84  74  72 E5        30.22F HX  91
LINCOLN        MOSUNNY   89  76  65 SE5       30.22S HX  99
LITCHFIELD     SUNNY     92  73  53 SE6       30.21F HX 101

CITY           SKY/WX    TMP DP  RH WIND       PRES   REMARKS
MACOMB         CLOUDY    86  75  69 CALM      30.23F HX  95
MATTOON        SUNNY     85  69  58 E3        30.22F HX  89
MOLINE         SUNNY     86  74  67 VRB3      30.21F HX  94
OLNEY          SUNNY     86  70  58 CALM      30.21F HX  90
PARIS          SUNNY     85  74  68 CALM      30.23F HX  93
PONTIAC        SUNNY     86  77  74 CALM      30.24F HX  97
QUINCY         PTSUNNY   84  72  67 N3        30.20F HX  89
RANTOUL        SUNNY     86  73  64 S5        30.24S HX  92
ROBINSON       SUNNY     85  71  62 CALM      30.22S HX  90
TAYLORVILLE    SUNNY     87  74  67 SE3       30.22S HX  95
TERRE HAUTE    SUNNY     88  67  49 VRB5      30.22F HX  91
$$


CITY           SKY/WX    TMP DP  RH WIND       PRES   REMARKS
BURLINGTON     MOSUNNY   87  76  69 CALM      30.21F HX  97
CHICAGO        PTSUNNY   85  70  60 E7        30.23F HX  89
DES MOINES     PTSUNNY   82  75  79 SE6       30.21F HX  89
EVANSVILLE     SUNNY     90  68  48 E7        30.19F HX  94
INDIANAPOLIS   MOSUNNY   87  69  54 CALM      30.22F HX  91
KANSAS CITY    MOSUNNY   88  71  57 S6        30.20F HX  94
MILWAUKEE      PTSUNNY   80  66  62 VRB6      30.26F HX  82
ST LOUIS       MOSUNNY   92  71  50 SE8       30.20F HX  98
$$





USA.gov is the U.S. government's official web portal to all federal, state and local government web resources and services.